Location: Newark
(46.7458°N, 5.3164°E)
Time: 17:13:41
(UTC+00:00)

N. Korean satellite - Visible Passes

Search period start: 22 November 2019 00:00
Search period end: 02 December 2019 00:00
Orbit: 456 x 506 km, 97.2° (Epoch: 21 November)

Date Brightness Start Highest point End Pass type
(mag) Time Alt. Az. Time Alt. Az. Time Alt. Az.
22 Nov 9.1 04:52:58 10° NE 04:56:03 24° E 04:59:04 10° SSE visible
22 Nov 8.0 17:03:44 10° S 17:07:14 43° W 17:10:49 10° NNW visible
23 Nov 10.1 04:28:39 10° ENE 04:30:26 13° E 04:32:11 10° ESE visible
23 Nov 6.8 06:00:33 10° N 06:04:08 49° WNW 06:07:39 10° SSW visible
23 Nov 6.6 16:38:08 10° SSE 16:41:48 90° SW 16:45:33 10° NNW visible
24 Nov 6.7 05:35:04 10° NNE 05:38:46 80° ESE 05:42:24 10° S visible
24 Nov 10.0 17:47:57 10° SW 17:50:06 15° W 17:52:15 10° NW visible
25 Nov 8.2 05:09:51 10° NNE 05:13:18 38° E 05:16:43 10° SSE visible
25 Nov 9.0 17:21:19 10° SSW 17:24:31 27° W 17:27:44 10° NW visible
26 Nov 9.4 04:45:00 10° NE 04:47:46 20° E 04:50:28 10° SE visible
26 Nov 7.4 06:17:56 10° N 06:21:13 31° WNW 06:24:27 10° SW visible
26 Nov 7.5 16:55:23 10° S 16:58:59 55° W 17:02:41 10° NNW visible
27 Nov 10.3 04:21:30 10° ENE 04:22:06 10° E 04:22:41 10° E visible
27 Nov 6.6 05:52:17 10° N 05:55:55 62° WNW 05:59:28 10° SSW visible
27 Nov 6.6 16:29:54 10° SSE 16:33:35 73° ENE 16:37:18 10° N visible
28 Nov 7.1 05:26:52 10° NNE 05:30:31 63° E 05:34:04 10° S visible
28 Nov 9.7 17:39:11 10° SW 17:41:47 18° W 17:44:24 10° NW visible
29 Nov 8.6 05:01:44 10° NNE 05:05:01 30° E 05:08:13 10° SSE visible
29 Nov 8.5 17:12:49 10° SSW 17:16:12 34° W 17:19:37 10° NNW visible
30 Nov 9.7 04:37:05 10° NE 04:39:25 16° E 04:41:42 10° SE visible
30 Nov 7.1 06:09:34 10° N 06:12:59 38° WNW 06:16:19 10° SW visible
30 Nov 7.0 16:47:02 10° S 16:50:43 69° WSW 16:54:27 10° NNW visible
01 Dec 6.4 05:43:59 10° N 05:47:39 79° WNW 05:51:12 10° SSW visible
01 Dec 6.7 16:21:41 10° SSE 16:25:19 58° ENE 16:29:00 10° N visible
01 Dec 10.1 17:57:42 10° WSW 17:59:05 12° W 18:00:27 10° WNW visible
